AAL1642 KMCO-KMIA

Flight info

Callsign AAL1642
Flight time 0h 49m
Altitude 23000
Route DDANY3 DDANY CSTAL3
Aircraft B38M/M-SDE1FGHILORVWXY/HB1

Departure

Time 2026-05-05 19:48
Airport Orlando International Airport (KMCO)

Arrival

Time 2026-05-05 20:38
Airport Miami International Airport (KMIA)
Time Latitude Longitude Altitude Speed Heading
2026-05-05 19:11 28.42789 -81.31587 104 ft 0 kts 45°
2026-05-05 19:16 28.42795 -81.31580 104 ft 0 kts 40°
2026-05-05 19:35 28.42793 -81.31582 104 ft 1 kts 40°
2026-05-05 19:36 28.42781 -81.31596 104 ft 3 kts 56°
2026-05-05 19:36 28.42773 -81.31615 102 ft 3 kts 76°
2026-05-05 19:36 28.42771 -81.31638 104 ft 3 kts 97°
2026-05-05 19:36 28.42776 -81.31658 103 ft 3 kts 122°
2026-05-05 19:37 28.42787 -81.31672 104 ft 2 kts 160°
2026-05-05 19:37 28.42792 -81.31674 101 ft 1 kts 167°
2026-05-05 19:40 28.42781 -81.31671 101 ft 4 kts 166°
2026-05-05 19:40 28.42724 -81.31656 104 ft 13 kts 166°
2026-05-05 19:40 28.42658 -81.31638 104 ft 10 kts 168°
2026-05-05 19:40 28.42564 -81.31616 104 ft 11 kts 168°
2026-05-05 19:41 28.42477 -81.31618 105 ft 14 kts 198°
2026-05-05 19:41 28.42391 -81.31663 107 ft 14 kts 192°
2026-05-05 19:41 28.42284 -81.31651 105 ft 17 kts 142°
2026-05-05 19:41 28.42267 -81.31535 104 ft 11 kts 89°
2026-05-05 19:42 28.42268 -81.31436 104 ft 14 kts 89°
2026-05-05 19:42 28.42268 -81.31314 103 ft 17 kts 90°
2026-05-05 19:42 28.42255 -81.31170 101 ft 20 kts 99°
2026-05-05 19:42 28.42236 -81.31019 103 ft 20 kts 94°
2026-05-05 19:43 28.42241 -81.30862 104 ft 21 kts 85°
2026-05-05 19:43 28.42252 -81.30696 107 ft 22 kts 86°
2026-05-05 19:43 28.42264 -81.30529 107 ft 21 kts 85°
2026-05-05 19:43 28.42274 -81.30361 104 ft 23 kts 88°
2026-05-05 19:44 28.42278 -81.30180 105 ft 22 kts 89°
2026-05-05 19:44 28.42279 -81.30016 106 ft 21 kts 89°
2026-05-05 19:44 28.42275 -81.29852 106 ft 20 kts 105°
2026-05-05 19:44 28.42150 -81.29791 105 ft 23 kts 180°
2026-05-05 19:45 28.41985 -81.29789 105 ft 24 kts 179°
2026-05-05 19:45 28.41831 -81.29788 104 ft 23 kts 179°
2026-05-05 19:45 28.41664 -81.29787 104 ft 25 kts 179°
2026-05-05 19:45 28.41484 -81.29784 104 ft 27 kts 179°
2026-05-05 19:46 28.41317 -81.29782 104 ft 24 kts 180°
2026-05-05 19:46 28.41141 -81.29780 104 ft 26 kts 179°
2026-05-05 19:46 28.40957 -81.29778 103 ft 15 kts 180°
2026-05-05 19:46 28.40873 -81.29778 102 ft 11 kts 178°
2026-05-05 19:47 28.40819 -81.29725 102 ft 13 kts 91°
2026-05-05 19:47 28.40824 -81.29606 100 ft 17 kts 78°
2026-05-05 19:47 28.40877 -81.29559 101 ft 0 kts 357°
2026-05-05 19:47 28.40888 -81.29560 101 ft 18 kts 357°
2026-05-05 19:48 28.41337 -81.29566 104 ft 110 kts 360°
2026-05-05 19:48 28.42374 -81.29571 218 ft 177 kts
2026-05-05 19:48 28.43704 -81.29627 1055 ft 200 kts 358°
2026-05-05 19:48 28.45158 -81.29681 2176 ft 215 kts
2026-05-05 19:49 28.46704 -81.29263 2903 ft 247 kts 30°
2026-05-05 19:49 28.47555 -81.28395 3595 ft 247 kts 56°
2026-05-05 19:49 28.48623 -81.25965 4156 ft 265 kts 64°
2026-05-05 19:49 28.49479 -81.24097 4236 ft 268 kts 61°
2026-05-05 19:50 28.50396 -81.22257 4361 ft 269 kts 65°
2026-05-05 19:50 28.50801 -81.20199 4492 ft 268 kts 84°
2026-05-05 19:50 28.51054 -81.18076 4161 ft 279 kts 81°
2026-05-05 19:50 28.51038 -81.15909 4136 ft 271 kts 104°
2026-05-05 19:51 28.50532 -81.13851 5025 ft 267 kts 105°
2026-05-05 19:51 28.50058 -81.11783 6203 ft 274 kts 105°
2026-05-05 19:51 28.49575 -81.09657 7206 ft 283 kts 105°
2026-05-05 19:51 28.49077 -81.07467 8231 ft 290 kts 105°
2026-05-05 19:52 28.48379 -81.05288 9171 ft 298 kts 124°
2026-05-05 19:52 28.46976 -81.03580 10163 ft 298 kts 144°
2026-05-05 19:52 28.45332 -81.02054 10849 ft 316 kts 143°
2026-05-05 19:52 28.43578 -81.00426 11439 ft 336 kts 143°
2026-05-05 19:53 28.41718 -80.98717 12079 ft 350 kts 143°
2026-05-05 19:53 28.39794 -80.96957 12817 ft 360 kts 143°
2026-05-05 19:53 28.37830 -80.95166 13700 ft 365 kts 143°
2026-05-05 19:53 28.35831 -80.93346 14395 ft 372 kts 143°
2026-05-05 19:54 28.33800 -80.91498 15146 ft 377 kts 143°
2026-05-05 19:54 28.31743 -80.89627 15902 ft 380 kts 143°
2026-05-05 19:54 28.29673 -80.87733 16644 ft 385 kts 140°
2026-05-05 19:54 28.27924 -80.85405 17344 ft 391 kts 120°
2026-05-05 19:55 28.26764 -80.82621 18031 ft 396 kts 112°
2026-05-05 19:55 28.25679 -80.79727 18636 ft 401 kts 112°
2026-05-05 19:55 28.24597 -80.76789 19222 ft 406 kts 111°
2026-05-05 19:55 28.23516 -80.73813 19789 ft 411 kts 111°
2026-05-05 19:56 28.22264 -80.70871 20318 ft 417 kts 124°
2026-05-05 19:56 28.20368 -80.68407 20876 ft 418 kts 142°
2026-05-05 19:56 28.17922 -80.66649 21365 ft 417 kts 160°
2026-05-05 19:56 28.15211 -80.65620 21882 ft 417 kts 168°
2026-05-05 19:57 28.12418 -80.64709 22418 ft 421 kts 169°
2026-05-05 19:57 28.10525 -80.64111 22787 ft 424 kts 169°
2026-05-05 19:57 28.06669 -80.62924 23035 ft 437 kts 170°
2026-05-05 19:57 28.03679 -80.62020 23005 ft 450 kts 170°
2026-05-05 19:58 28.00638 -80.61107 23033 ft 456 kts 170°
2026-05-05 19:58 27.97564 -80.60185 23060 ft 458 kts 170°
2026-05-05 19:58 27.94487 -80.59264 23070 ft 458 kts 170°
2026-05-05 19:58 27.91401 -80.58341 23069 ft 458 kts 170°
2026-05-05 19:59 27.88320 -80.57421 23069 ft 458 kts 170°
2026-05-05 19:59 27.85258 -80.56506 23068 ft 458 kts 170°
2026-05-05 19:59 27.82221 -80.55599 23069 ft 458 kts 170°
2026-05-05 19:59 27.79139 -80.54679 23068 ft 458 kts 170°
2026-05-05 20:00 27.76055 -80.53759 23066 ft 458 kts 170°
2026-05-05 20:00 27.72987 -80.52844 23047 ft 457 kts 170°
2026-05-05 20:00 27.69858 -80.51913 23060 ft 458 kts 170°
2026-05-05 20:00 27.66782 -80.50993 23064 ft 458 kts 169°
2026-05-05 20:01 27.63753 -80.49813 23085 ft 461 kts 164°
2026-05-05 20:01 27.60748 -80.48593 23059 ft 461 kts 165°
2026-05-05 20:01 27.57721 -80.47386 23063 ft 461 kts 165°
2026-05-05 20:01 27.54696 -80.46193 23064 ft 461 kts 165°
2026-05-05 20:02 27.51712 -80.45020 23063 ft 461 kts 165°
2026-05-05 20:02 27.48692 -80.43834 23063 ft 461 kts 165°
2026-05-05 20:02 27.45659 -80.42644 23063 ft 461 kts 165°
2026-05-05 20:02 27.42633 -80.41457 23063 ft 461 kts 165°
2026-05-05 20:03 27.39611 -80.40273 23062 ft 461 kts 165°
2026-05-05 20:03 27.36596 -80.39092 23057 ft 461 kts 165°
2026-05-05 20:03 27.33567 -80.37907 23055 ft 461 kts 165°
2026-05-05 20:03 27.30540 -80.36722 23050 ft 461 kts 165°
2026-05-05 20:04 27.27512 -80.35538 23041 ft 461 kts 165°
2026-05-05 20:04 27.24478 -80.34353 23049 ft 461 kts 165°
2026-05-05 20:04 27.21455 -80.33173 23046 ft 461 kts 165°
2026-05-05 20:04 27.18425 -80.31995 23049 ft 461 kts 165°
2026-05-05 20:05 27.15413 -80.30824 23044 ft 460 kts 165°
2026-05-05 20:05 27.12384 -80.29646 23027 ft 460 kts 165°
2026-05-05 20:05 27.09351 -80.28468 23050 ft 461 kts 165°
2026-05-05 20:05 27.06323 -80.27292 23045 ft 460 kts 165°
2026-05-05 20:06 27.03302 -80.26120 22860 ft 457 kts 165°
2026-05-05 20:06 27.00308 -80.24958 22421 ft 451 kts 165°
2026-05-05 20:06 26.97380 -80.23824 22123 ft 442 kts 165°
2026-05-05 20:06 26.94481 -80.22701 21642 ft 438 kts 165°
2026-05-05 20:07 26.91624 -80.21594 21174 ft 435 kts 165°
2026-05-05 20:07 26.88775 -80.20492 20709 ft 432 kts 165°
2026-05-05 20:07 26.85930 -80.19455 20227 ft 427 kts 169°
2026-05-05 20:07 26.83060 -80.18619 19714 ft 426 kts 169°
2026-05-05 20:08 26.80224 -80.17774 19289 ft 416 kts 168°
2026-05-05 20:08 26.77479 -80.16944 18888 ft 401 kts 168°
2026-05-05 20:08 26.74828 -80.16140 18487 ft 389 kts 168°
2026-05-05 20:08 26.72251 -80.15356 18039 ft 378 kts 168°
2026-05-05 20:09 26.69750 -80.14596 17598 ft 369 kts 168°
2026-05-05 20:09 26.67261 -80.13840 17153 ft 376 kts 168°
2026-05-05 20:09 26.64720 -80.13068 16749 ft 381 kts 168°
2026-05-05 20:09 26.62164 -80.12291 16361 ft 380 kts 168°
2026-05-05 20:10 26.59613 -80.11516 15953 ft 379 kts 168°
2026-05-05 20:10 26.57076 -80.10746 15545 ft 377 kts 168°
2026-05-05 20:10 26.54548 -80.09980 15128 ft 375 kts 168°
2026-05-05 20:10 26.52034 -80.09217 14712 ft 373 kts 168°
2026-05-05 20:11 26.49539 -80.08461 14321 ft 371 kts 168°
2026-05-05 20:11 26.47056 -80.07709 13917 ft 369 kts 168°
2026-05-05 20:11 26.44554 -80.07107 13433 ft 366 kts 173°
2026-05-05 20:11 26.42177 -80.06595 13114 ft 361 kts 172°
2026-05-05 20:12 26.40747 -80.06281 13033 ft 355 kts 172°
2026-05-05 20:12 26.38639 -80.05757 12927 ft 346 kts 169°
2026-05-05 20:12 26.36337 -80.05135 12802 ft 335 kts 170°
2026-05-05 20:12 26.34102 -80.04537 12672 ft 325 kts 170°
2026-05-05 20:13 26.31960 -80.03958 12544 ft 316 kts 169°
2026-05-05 20:13 26.29835 -80.03374 12396 ft 315 kts 169°
2026-05-05 20:13 26.27703 -80.02790 12281 ft 315 kts 169°
2026-05-05 20:13 26.25566 -80.02347 12131 ft 309 kts 184°
2026-05-05 20:14 26.23478 -80.02672 11996 ft 302 kts 195°
2026-05-05 20:14 26.21411 -80.03123 11893 ft 303 kts 195°
2026-05-05 20:14 26.19344 -80.03580 11766 ft 301 kts 195°
2026-05-05 20:14 26.17310 -80.04036 11630 ft 300 kts 195°
2026-05-05 20:15 26.15265 -80.04500 11523 ft 300 kts 195°
2026-05-05 20:15 26.13225 -80.04964 11381 ft 299 kts 195°
2026-05-05 20:15 26.11182 -80.05430 11267 ft 299 kts 195°
2026-05-05 20:15 26.09151 -80.05893 11139 ft 298 kts 195°
2026-05-05 20:16 26.07125 -80.06361 11023 ft 296 kts 197°
2026-05-05 20:16 26.05128 -80.06880 10812 ft 295 kts 197°
2026-05-05 20:16 26.03128 -80.07401 10569 ft 294 kts 197°
2026-05-05 20:16 26.01145 -80.07915 10317 ft 291 kts 197°
2026-05-05 20:17 25.99193 -80.08419 10073 ft 287 kts 197°
2026-05-05 20:17 25.97259 -80.08918 9833 ft 283 kts 197°
2026-05-05 20:17 25.95351 -80.09410 9569 ft 279 kts 197°
2026-05-05 20:17 25.93490 -80.09905 9320 ft 274 kts 200°
2026-05-05 20:18 25.91869 -80.10925 9045 ft 267 kts 226°
2026-05-05 20:18 25.90590 -80.12413 8871 ft 267 kts 229°
2026-05-05 20:18 25.89323 -80.13917 8658 ft 266 kts 230°
2026-05-05 20:18 25.88301 -80.15596 8398 ft 262 kts 252°
2026-05-05 20:19 25.88012 -80.17570 8165 ft 260 kts 268°
2026-05-05 20:19 25.87918 -80.19573 7981 ft 261 kts 267°
2026-05-05 20:19 25.87822 -80.21614 7493 ft 269 kts 267°
2026-05-05 20:19 25.87736 -80.23712 7013 ft 276 kts 268°
2026-05-05 20:20 25.87656 -80.25863 6515 ft 281 kts 268°
2026-05-05 20:20 25.87597 -80.28053 6041 ft 285 kts 272°
2026-05-05 20:20 25.88108 -80.30160 5639 ft 285 kts 297°
2026-05-05 20:20 25.89051 -80.32080 5354 ft 281 kts 297°
2026-05-05 20:21 25.89965 -80.33976 5091 ft 277 kts 298°
2026-05-05 20:21 25.90869 -80.35842 4804 ft 269 kts 298°
2026-05-05 20:21 25.91732 -80.37620 4510 ft 258 kts 298°
2026-05-05 20:21 25.92566 -80.39335 4244 ft 247 kts 298°
2026-05-05 20:22 25.93348 -80.40977 4075 ft 233 kts 294°
2026-05-05 20:22 25.93632 -80.42676 4116 ft 216 kts 272°
2026-05-05 20:22 25.93648 -80.44281 4063 ft 204 kts 272°
2026-05-05 20:22 25.93652 -80.45862 4018 ft 205 kts 271°
2026-05-05 20:23 25.93638 -80.47449 3986 ft 206 kts 269°
2026-05-05 20:23 25.93508 -80.49016 3880 ft 202 kts 255°
2026-05-05 20:23 25.92739 -80.50293 3719 ft 203 kts 218°
2026-05-05 20:23 25.91425 -80.50817 3606 ft 206 kts 182°
2026-05-05 20:24 25.90036 -80.50431 3485 ft 210 kts 150°
2026-05-05 20:24 25.89036 -80.49289 3280 ft 208 kts 116°
2026-05-05 20:24 25.88563 -80.47782 3170 ft 207 kts 108°
2026-05-05 20:24 25.88037 -80.46343 3046 ft 197 kts 114°
2026-05-05 20:25 25.87427 -80.45001 2828 ft 193 kts 116°
2026-05-05 20:25 25.86790 -80.43712 2598 ft 188 kts 118°
2026-05-05 20:25 25.86168 -80.42480 2373 ft 177 kts 117°
2026-05-05 20:25 25.85588 -80.41337 2199 ft 165 kts 116°
2026-05-05 20:26 25.85033 -80.40249 1990 ft 159 kts 117°
2026-05-05 20:26 25.84494 -80.39195 1781 ft 156 kts 116°
2026-05-05 20:26 25.83958 -80.38147 1578 ft 155 kts 117°
2026-05-05 20:26 25.83433 -80.37107 1375 ft 154 kts 117°
2026-05-05 20:27 25.82907 -80.36077 1175 ft 152 kts 118°
2026-05-05 20:27 25.82392 -80.35065 964 ft 150 kts 117°
2026-05-05 20:27 25.81888 -80.34048 761 ft 150 kts 119°
2026-05-05 20:27 25.81348 -80.33028 590 ft 159 kts 119°
2026-05-05 20:28 25.80783 -80.31903 618 ft 177 kts 119°
2026-05-05 20:28 25.80147 -80.30654 1049 ft 199 kts 117°
2026-05-05 20:28 25.79415 -80.29284 1905 ft 201 kts 124°
2026-05-05 20:28 25.78422 -80.28461 2477 ft 175 kts 162°
2026-05-05 20:29 25.77188 -80.28525 2778 ft 187 kts 204°
2026-05-05 20:29 25.76136 -80.29427 2965 ft 200 kts 229°
2026-05-05 20:29 25.75523 -80.30815 2906 ft 204 kts 264°
2026-05-05 20:29 25.75432 -80.32398 2969 ft 209 kts 264°
2026-05-05 20:30 25.75238 -80.34009 2991 ft 212 kts 264°
2026-05-05 20:30 25.75036 -80.35626 2995 ft 211 kts 264°
2026-05-05 20:30 25.75154 -80.37227 2953 ft 209 kts 291°
2026-05-05 20:30 25.75761 -80.38692 3018 ft 209 kts 297°
2026-05-05 20:31 25.76422 -80.40129 3017 ft 208 kts 297°
2026-05-05 20:31 25.77078 -80.41557 3009 ft 208 kts 297°
2026-05-05 20:31 25.77739 -80.42985 3002 ft 209 kts 298°
2026-05-05 20:31 25.78404 -80.44408 3013 ft 208 kts 298°
2026-05-05 20:32 25.79067 -80.45839 3012 ft 208 kts 298°
2026-05-05 20:32 25.79731 -80.47263 3001 ft 203 kts 298°
2026-05-05 20:32 25.80399 -80.48533 3000 ft 178 kts 310°
2026-05-05 20:32 25.81389 -80.49181 2876 ft 164 kts 353°
2026-05-05 20:33 25.82480 -80.48916 2940 ft 164 kts 25°
2026-05-05 20:33 25.83503 -80.48316 3084 ft 167 kts 29°
2026-05-05 20:33 25.84384 -80.47464 3087 ft 171 kts 52°
2026-05-05 20:33 25.85000 -80.46340 2888 ft 170 kts 59°
2026-05-05 20:34 25.85511 -80.45162 2678 ft 170 kts 72°
2026-05-05 20:34 25.85679 -80.43873 2524 ft 169 kts 85°
2026-05-05 20:34 25.85550 -80.42579 2328 ft 169 kts 104°
2026-05-05 20:34 25.85184 -80.41348 2128 ft 167 kts 106°
2026-05-05 20:35 25.84838 -80.40129 1929 ft 165 kts 108°
2026-05-05 20:35 25.84362 -80.38975 1728 ft 165 kts 114°
2026-05-05 20:35 25.83827 -80.37875 1531 ft 159 kts 116°
2026-05-05 20:35 25.83290 -80.36828 1325 ft 153 kts 117°
2026-05-05 20:36 25.82767 -80.35805 1123 ft 152 kts 117°
2026-05-05 20:36 25.82253 -80.34784 919 ft 151 kts 117°
2026-05-05 20:36 25.81732 -80.33757 735 ft 153 kts 119°
2026-05-05 20:36 25.81206 -80.32743 558 ft 151 kts 118°
2026-05-05 20:37 25.80694 -80.31738 382 ft 147 kts 119°
2026-05-05 20:37 25.80199 -80.30760 148 ft 143 kts 118°
2026-05-05 20:37 25.79727 -80.29840 21 ft 127 kts 117°
2026-05-05 20:37 25.79372 -80.29140 16 ft 71 kts 118°
2026-05-05 20:38 25.79223 -80.28838 17 ft 33 kts 113°
2026-05-05 20:38 25.79243 -80.28683 17 ft 21 kts 18°
2026-05-05 20:38 25.79377 -80.28728 19 ft 22 kts 310°
2026-05-05 20:38 25.79506 -80.28805 17 ft 24 kts 358°
2026-05-05 20:39 25.79676 -80.28814 18 ft 20 kts 357°
2026-05-05 20:39 25.79823 -80.28821 18 ft 22 kts 357°
2026-05-05 20:39 25.79936 -80.28743 18 ft 23 kts 86°
2026-05-05 20:39 25.79943 -80.28556 18 ft 26 kts 87°
2026-05-05 20:40 25.79948 -80.28421 17 ft 3 kts 93°
2026-05-05 20:40 25.79929 -80.28382 18 ft 5 kts 146°
2026-05-05 20:40 25.79880 -80.28374 18 ft 9 kts 177°
2026-05-05 20:40 25.79858 -80.28372 17 ft 4 kts 176°
2026-05-05 20:41 25.79841 -80.28371 17 ft 3 kts 176°
2026-05-05 20:41 25.79824 -80.28370 17 ft 1 kts 176°
2026-05-05 20:41 25.79823 -80.28370 17 ft 0 kts 176°